Wind_Speed
27 29 33 35 34 33 30 28 24 18 17 13 12 18 17 13 13 13 12 10 9 10 10 13 18 19 16 16 16 12 9 5 4 1 3 16 24 20 16 13 12 13 13 13 10 8 8 7 6 5 5 5 5 7 8 8 6 7 8 8 10 10 10 9 8 10 12 13 15 18 19 20 20 20 19 18 17 18 18 18 19 19 20 22 24 24
27 30 35 35 31 28 26 24 24 21 18 16 14 18 20 17 13 11 11 9 10 11 10 12 17 18 13 14 14 11 11 8 4 3 4 15 22 17 14 13 13 14 13 13 12 9 9 8 9 10 11 12 12 11 9 8 8 12 11 12 13 10 9 9 9 11 13 13 14 17 19 19 18 19 18 18 18 20 21 21 20 20 21 22 24 25
29 32 33 32 27 25 24 22 23 23 21 19 17 16 17 19 16 11 10 10 10 12 11 11 14 13 9 12 13 13 14 10 6 6 8 13 17 15 13 13 14 14 14 14 13 12 11 11 13 14 14 14 12 10 7 4 8 11 8 7 9 7 7 8 8 10 12 13 15 17 18 17 17 18 18 19 20 21 23 23 21 21 22 23 23 24
30 31 30 29 26 24 24 23 22 23 24 22 20 18 16 18 18 12 10 11 10 11 10 10 12 10 11 11 13 14 14 11 8 9 10 11 14 14 15 15 16 15 14 15 15 15 15 15 14 14 14 13 11 8 6 5 6 7 7 7 9 6 7 10 9 8 9 10 12 15 16 17 17 18 20 21 21 22 22 22 22 23 23 24 25 24
28 28 28 27 25 25 25 26 25 24 26 24 21 19 16 16 17 14 11 9 8 7 8 10 10 13 15 15 16 16 15 13 12 11 11 11 11 12 14 16 17 16 16 17 17 17 17 17 15 13 13 13 11 7 4 5 5 6 5 5 6 4 3 10 12 9 9 9 8 10 13 15 17 18 21 23 23 23 21 22 23 23 24 25 26 26
26 26 27 26 25 27 26 27 28 26 26 25 23 21 17 15 15 15 12 8 7 8 10 13 8 8 13 18 19 19 18 15 14 13 13 13 12 11 12 14 14 13 14 15 16 18 19 18 17 14 14 14 12 8 5 5 6 7 7 4 7 10 5 9 13 13 12 12 10 10 9 12 15 17 20 22 22 22 21 21 22 24 26 25 26 27
26 23 26 27 27 29 29 27 27 27 26 24 23 22 19 15 14 14 12 9 8 9 12 13 7 5 11 16 18 19 19 17 15 14 14 14 13 12 12 12 12 11 11 12 14 17 18 19 19 17 15 14 12 8 6 5 5 6 7 6 9 13 7 7 12 15 15 13 12 12 10 11 14 16 18 20 21 20 20 21 23 25 26 25 26 27
25 22 23 28 29 30 31 30 27 27 26 23 22 22 20 18 14 11 11 11 8 7 10 12 10 9 9 13 19 19 18 18 17 15 15 14 13 12 12 11 11 11 10 11 13 15 17 18 19 17 14 12 10 9 8 7 6 6 7 8 11 13 9 8 12 17 18 16 15 14 13 13 15 16 18 19 20 21 21 23 25 27 27 25 25 24
26 26 24 28 31 32 32 30 27 26 25 22 20 20 19 19 16 11 10 12 10 7 8 10 12 9 5 10 18 18 18 19 17 16 15 14 13 11 11 11 10 10 9 10 11 13 15 16 16 15 13 10 10 10 10 11 10 8 9 10 13 15 13 11 13 19 21 19 17 16 16 15 16 17 18 19 20 22 24 23 23 25 25 23 21 21
27 29 27 27 30 32 30 27 25 25 23 21 19 18 17 17 17 14 11 12 12 8 6 11 15 9 3 7 13 15 18 19 18 17 15 14 13 11 11 10 9 9 8 8 9 10 12 12 12 11 11 10 10 10 11 13 12 11 12 12 15 18 18 14 13 17 21 22 20 19 19 18 19 20 20 21 21 22 23 22 21 22 22 21 21 21
24 27 27 27 26 25 22 22 25 24 22 20 20 19 17 16 16 15 13 12 9 7 6 11 16 10 4 5 9 13 17 18 18 16 14 13 12 11 10 9 8 7 7 7 7 7 7 7 7 8 9 9 10 10 11 13 13 13 14 15 17 21 21 17 14 16 20 23 23 22 22 22 22 23 23 23 21 21 22 21 20 19 17 17 20 21
20 21 25 26 25 22 19 20 23 24 23 21 21 22 18 13 12 12 14 13 7 5 6 9 13 10 6 7 10 14 17 18 17 16 14 13 11 9 8 7 6 6 5 4 4 4 4 5 6 6 7 8 9 10 11 12 13 14 16 17 19 21 22 20 17 17 19 23 25 26 26 26 26 26 25 24 22 21 22 21 21 20 17 16 18 19
18 17 20 21 22 23 21 20 22 22 24 23 22 25 18 9 8 8 8 7 5 5 6 9 11 7 8 10 12 13 15 16 16 16 14 12 10 9 7 6 6 6 5 5 5 5 6 7 8 8 8 9 10 11 11 12 14 15 17 18 21 22 23 21 18 18 20 23 26 28 28 28 29 29 26 24 23 22 21 20 20 21 21 21 20 18
18 16 18 19 20 24 23 24 26 25 26 26 25 27 19 7 5 5 3 3 3 4 7 10 10 8 9 10 11 12 15 16 16 15 13 11 9 8 7 7 7 6 6 7 7 8 9 9 10 10 11 11 12 12 12 13 14 16 17 19 22 23 23 22 21 22 23 25 27 29 30 30 31 31 27 24 25 24 22 21 20 21 22 22 21 19
17 14 20 22 20 24 25 22 24 25 26 27 25 25 21 11 6 4 3 3 3 4 7 7 6 7 9 10 12 14 14 15 15 13 12 10 10 9 9 8 8 8 7 8 8 9 10 10 11 12 12 13 14 14 13 13 14 17 18 20 22 23 23 24 25 25 24 25 28 29 30 31 32 32 29 27 28 27 25 24 22 21 21 21 20 20
17 13 20 24 19 22 26 21 19 21 23 25 24 22 21 18 12 8 6 6 8 7 4 4 4 7 11 11 13 14 12 12 12 12 12 11 11 10 9 9 8 8 8 9 9 10 11 12 12 12 13 14 14 14 14 14 15 18 20 22 23 24 26 27 26 25 23 24 27 29 31 31 32 32 31 30 30 30 30 27 24 22 22 21 19 19
16 10 17 24 18 18 24 21 18 18 20 25 27 24 22 18 14 12 8 7 11 7 3 4 6 10 12 10 12 13 12 13 11 11 12 12 11 10 9 9 8 8 8 9 10 11 12 13 13 13 14 14 14 15 15 16 17 19 21 23 22 22 24 25 23 22 22 22 24 27 29 30 31 31 32 32 32 32 33 31 28 25 23 19 17 17
18 11 14 24 20 19 22 20 18 17 18 25 29 27 24 17 12 12 8 5 5 3 2 4 6 13 13 9 12 15 15 15 12 10 12 11 12 12 10 9 8 7 8 10 11 12 12 13 13 14 14 14 14 15 15 16 17 17 19 20 18 17 18 19 18 18 18 17 18 21 24 26 28 29 31 33 34 34 35 34 30 27 24 20 18 18
21 11 11 23 23 20 21 19 19 20 17 21 27 27 22 15 12 12 8 5 4 3 3 3 4 11 12 10 14 16 17 17 14 12 13 13 13 12 10 9 8 7 8 9 10 10 10 11 12 13 13 12 13 14 14 14 14 14 15 15 14 14 15 15 15 15 15 15 16 18 19 21 23 24 26 31 34 37 37 35 31 28 24 21 22 22
21 12 9 21 25 22 21 18 20 23 20 18 23 28 23 15 14 14 9 7 7 4 4 4 3 9 13 12 15 15 16 17 14 13 15 13 12 13 10 8 7 7 7 8 8 8 8 9 10 10 11 12 12 12 11 11 11 11 12 11 11 11 12 13 12 13 14 15 16 17 16 17 19 20 23 26 30 36 38 35 31 27 23 22 23 24
17 12 9 16 22 22 21 20 19 21 23 21 24 30 26 16 15 15 8 7 9 6 5 5 3 9 16 16 16 16 17 16 13 14 15 12 12 13 9 6 5 5 6 7 8 8 8 9 9 10 11 12 13 12 11 11 11 11 11 10 10 10 10 11 12 12 13 14 16 16 15 16 18 19 21 23 23 28 34 33 29 25 23 23 24 23
12 10 11 15 19 20 20 20 18 18 22 24 25 30 29 20 17 14 5 5 8 8 8 7 3 9 20 20 18 20 19 16 14 13 13 12 11 10 7 5 5 5 6 7 8 9 9 10 10 11 12 12 13 13 12 13 13 13 13 12 12 12 12 12 14 15 16 17 18 18 17 17 18 19 19 19 17 17 24 26 24 23 24 25 24 22
10 8 11 15 16 17 17 18 18 17 21 23 22 26 28 22 19 15 8 8 10 8 9 9 3 7 21 24 21 22 19 16 14 12 11 11 10 9 6 6 6 6 6 6 8 9 10 10 11 12 13 13 13 14 15 16 17 17 17 16 15 15 15 15 16 17 17 18 19 20 20 19 19 20 19 17 14 13 19 23 23 24 26 26 24 22
12 7 11 15 12 11 13 16 19 20 21 22 21 24 26 23 21 17 13 15 16 13 11 8 2 7 21 27 26 23 19 15 14 14 13 11 10 9 8 6 6 7 7 7 7 8 9 10 11 12 13 13 14 15 16 18 19 20 19 19 18 18 18 17 17 18 18 18 19 19 20 20 20 20 20 18 16 15 19 23 25 25 26 26 25 24
14 9 12 12 9 8 9 11 15 18 19 21 21 23 24 23 22 17 14 15 16 16 15 9 3 8 21 29 30 25 20 17 17 18 15 12 12 11 10 10 9 8 7 7 7 7 9 10 11 12 12 13 13 15 16 18 19 20 20 19 19 19 18 18 17 17 17 18 19 20 21 22 22 21 21 21 20 19 20 23 25 26 27 27 27 27
15 12 13 10 6 6 6 6 11 15 16 18 19 21 22 23 22 18 15 15 13 15 18 12 6 11 21 29 31 28 25 22 21 22 18 13 11 9 10 12 12 10 8 8 8 8 9 10 12 13 13 13 13 14 15 16 18 19 20 19 18 18 18 18 18 18 18 18 19 20 21 23 23 23 22 22 22 22 23 24 25 27 28 28 28 27
17 15 14 11 8 9 10 12 16 18 17 17 17 18 21 22 21 18 16 16 15 16 19 16 12 13 20 27 30 30 28 25 23 22 19 15 14 11 10 11 9 8 9 10 9 9 9 11 12 14 14 15 15 15 16 16 17 19 19 19 18 19 19 20 20 19 19 19 20 21 22 23 24 25 24 24 23 23 24 25 27 28 29 29 28 27
19 17 14 11 10 11 14 17 19 19 18 18 18 19 20 20 20 19 16 15 15 14 14 17 16 13 17 24 28 29 28 25 21 17 15 16 16 13 11 9 7 9 12 12 10 10 10 11 12 13 14 15 16 16 17 17 18 19 20 20 20 20 21 21 21 20 20 21 22 22 23 24 25 27 26 25 25 25 24 25 26 28 30 30 30 29
20 17 14 12 12 14 15 17 17 16 17 18 18 20 21 20 20 19 17 14 15 13 10 14 17 13 15 21 25 26 26 22 18 15 15 15 13 10 9 8 8 10 12 11 10 11 11 10 11 11 12 14 15 16 17 17 18 20 21 21 21 21 22 22 22 22 22 22 23 23 23 25 27 28 28 26 24 25 26 26 25 26 28 29 30 30
19 17 16 14 16 17 17 16 14 13 16 18 18 18 19 19 18 18 17 14 14 13 9 10 15 15 15 18 22 24 23 20 18 19 18 14 9 8 8 8 8 9 10 10 10 11 11 10 10 10 10 12 13 15 16 16 17 18 20 21 21 21 21 22 22 22 23 23 23 24 25 26 28 28 27 26 24 24 25 26 26 25 25 26 28 28
16 17 18 18 19 18 16 15 14 12 16 18 18 17 17 16 15 14 14 13 14 12 8 8 13 16 16 17 21 22 21 20 20 19 17 13 11 10 9 8 8 9 9 9 11 11 11 10 10 10 10 11 12 13 14 15 16 17 18 19 20 20 20 21 21 22 22 23 23 24 25 27 27 26 26 26 24 24 23 24 25 25 24 25 27 28
14 17 21 21 18 17 14 14 14 12 15 17 17 16 16 15 15 13 13 13 12 10 8 10 13 16 16 17 20 21 21 20 19 16 13 12 12 12 11 10 10 9 8 9 10 10 11 11 10 10 11 11 13 13 13 14 14 15 16 17 18 19 19 19 20 21 21 22 22 22 24 26 26 25 26 27 26 24 22 21 22 24 24 24 25 26
12 15 21 20 16 16 15 14 15 14 12 9 10 12 13 12 13 14 13 13 11 8 7 9 11 13 14 16 18 20 20 18 16 14 13 11 10 10 12 12 11 10 9 9 10 10 12 13 13 13 13 13 14 15 14 15 15 15 16 17 17 18 18 19 20 21 21 21 21 21 23 25 26 25 26 26 25 24 21 19 18 20 23 24 24 25
12 13 17 18 15 17 17 15 15 12 7 5 6 8 9 10 11 12 13 13 13 11 9 9 10 12 14 15 15 16 16 15 14 13 12 11 10 10 10 9 9 9 9 10 12 12 12 13 14 15 15 15 16 17 17 17 18 18 19 19 19 18 18 19 20 21 21 21 21 21 22 24 25 25 25 23 22 22 20 18 17 19 21 23 24 25
15 16 17 16 18 19 18 15 10 5 5 8 8 6 7 8 7 8 9 11 11 11 10 10 11 13 14 13 12 13 13 13 12 11 8 7 7 7 7 8 9 10 11 12 13 12 12 13 14 15 15 15 17 19 19 19 20 21 21 21 20 19 18 19 20 21 22 21 21 21 22 23 24 23 23 21 19 17 17 16 16 17 19 21 23 24
13 16 18 17 18 17 13 9 5 5 8 11 9 7 7 7 6 6 7 8 9 8 7 6 8 11 11 10 11 12 12 11 11 10 8 7 8 9 9 9 9 10 11 12 13 12 12 14 15 15 15 17 19 19 20 21 22 23 23 23 22 20 19 19 20 21 22 22 22 22 22 23 24 23 21 20 16 14 13 14 15 18 20 21 21 21
8 13 17 17 16 14 11 10 9 9 9 10 10 9 8 7 7 7 7 8 9 8 7 5 5 9 10 10 10 12 12 11 11 11 11 12 12 11 10 9 10 12 13 14 13 12 12 15 16 17 17 18 19 20 21 23 23 24 24 24 22 20 19 19 20 21 22 23 23 23 22 23 23 23 21 20 18 15 14 16 15 15 18 18 17 18
7 9 14 14 13 15 16 13 9 5 5 9 12 9 7 8 8 6 8 10 9 9 10 7 6 7 10 11 11 11 11 11 10 9 9 9 10 9 10 11 13 14 14 13 13 13 15 16 17 18 19 19 20 22 23 23 23 22 21 21 19 19 19 20 20 21 21 22 22 22 21 20 20 22 22 20 19 17 16 17 18 13 10 10 10 12
9 8 11 11 12 18 17 10 5 3 5 11 14 10 9 10 8 6 7 10 10 10 12 10 8 9 11 12 12 11 10 9 8 8 8 9 9 8 9 11 12 12 12 12 13 14 15 17 18 19 20 22 23 23 23 22 21 20 18 16 16 16 18 20 21 20 20 20 20 21 21 19 17 19 21 21 20 19 16 14 15 14 6 1 3 6
9 9 10 9 12 19 17 10 5 5 7 12 15 13 12 11 10 7 6 9 13 14 14 13 12 12 13 13 11 9 7 6 7 7 8 8 8 8 9 10 10 11 12 12 13 14 15 16 18 19 20 21 21 21 20 19 19 17 15 14 14 15 17 19 20 19 18 18 18 19 20 19 17 16 18 19 19 19 17 13 12 12 7 2 4 6
10 10 10 9 13 19 17 10 6 5 9 14 16 15 13 12 10 7 4 8 15 17 16 16 15 14 13 11 8 6 5 6 6 6 6 6 7 7 8 8 10 11 12 12 13 15 15 15 16 16 17 17 17 16 16 17 17 16 14 14 15 15 17 18 18 17 16 16 17 18 19 20 18 16 15 15 14 14 14 13 12 11 11 10 9 7
11 10 10 11 15 17 16 11 7 5 10 15 15 13 12 10 7 5 5 7 12 16 15 15 15 13 10 8 5 4 5 4 4 5 5 5 6 7 7 8 9 10 11 11 11 11 11 12 13 14 15 15 15 15 15 16 16 16 16 16 17 17 17 16 16 16 16 15 16 17 17 18 18 16 15 15 13 9 8 9 10 11 12 13 8 6
12 11 12 14 14 13 14 10 5 5 10 15 15 13 12 9 6 6 7 7 10 12 10 11 14 13 9 8 7 6 7 6 5 5 4 4 5 6 5 5 5 5 5 6 6 7 9 10 10 11 12 12 13 13 13 13 14 16 16 17 17 17 17 16 16 16 16 16 16 16 15 16 16 16 15 15 14 9 5 3 5 7 10 11 10 9
12 11 12 14 12 10 12 10 5 6 11 15 15 13 12 11 6 5 6 6 9 11 9 9 13 12 9 8 7 6 6 6 5 4 2 2 1 1 0 1 2 3 4 5 7 8 9 10 10 10 10 11 12 13 13 12 13 14 15 16 16 16 16 16 16 16 16 16 16 15 15 15 15 15 14 13 12 9 5 3 3 5 8 10 11 12
11 9 10 12 11 9 10 9 7 8 12 15 15 13 14 12 8 6 7 7 8 11 12 11 12 11 9 8 6 6 7 6 5 4 3 2 3 3 3 3 4 4 6 7 9 10 10 11 11 12 13 13 14 15 15 15 14 14 15 16 16 16 16 16 16 16 16 16 15 15 16 16 16 15 14 12 10 9 7 5 3 3 6 9 11 14
10 9 8 10 11 9 8 8 9 11 14 16 16 15 14 12 8 7 10 10 8 10 13 12 11 10 10 9 8 8 9 7 4 4 3 3 3 3 4 5 5 6 7 8 9 10 11 12 12 13 14 14 15 15 16 16 15 15 15 16 16 16 17 17 17 16 15 16 15 15 15 15 16 16 16 15 12 9 8 7 5 3 2 4 7 11
10 10 8 9 11 10 10 11 11 13 17 18 16 16 15 12 8 9 12 12 10 10 13 13 12 12 12 12 10 8 7 6 4 3 3 3 2 3 4 5 6 7 8 9 9 10 11 11 12 13 13 14 14 15 15 16 15 15 15 15 15 15 15 16 16 15 15 16 16 16 15 15 15 15 15 15 14 13 12 10 8 6 5 3 3 6
11 11 10 10 10 10 11 13 14 16 18 17 15 15 15 11 9 11 13 12 11 12 14 14 14 14 14 13 11 8 7 6 5 4 4 3 3 3 4 5 6 7 8 9 10 11 11 12 13 14 14 15 15 15 15 15 15 15 14 14 14 13 13 13 14 14 15 16 17 17 17 16 15 15 14 13 13 13 13 12 11 11 10 9 7 5
10 11 11 11 11 11 12 14 16 18 19 17 15 15 14 11 11 13 14 13 12 13 14 16 16 15 14 13 12 9 8 8 7 7 7 6 6 7 7 8 8 9 9 10 10 11 12 13 14 14 15 16 16 16 15 15 15 15 14 14 14 13 13 13 13 13 14 15 16 17 17 17 16 16 15 13 12 12 11 11 12 12 13 13 12 10
10 10 9 9 9 9 9 12 15 18 20 20 18 16 14 13 14 15 16 16 15 14 14 15 16 16 15 13 13 12 11 11 11 11 10 10 10 10 10 10 10 10 11 11 12 12 13 14 15 15 15 15 15 15 15 15 15 15 15 15 15 14 13 13 13 13 13 13 14 15 16 16 16 16 15 14 14 13 12 12 12 12 12 13 13 13
11 10 8 7 7 6 7 11 16 17 19 20 20 18 18 18 17 17 17 17 18 17 16 15 16 17 16 15 15 15 14 14 13 13 12 12 12 11 11 11 11 11 12 12 13 14 15 16 16 16 16 16 16 16 15 15 15 15 15 15 15 14 13 12 12 12 12 12 12 13 14 15 15 15 15 14 14 14 13 12 12 12 12 12 13 13
Wind_Direction
210 205 202 201 202 202 202 202 198 192 190 184 174 186 190 185 184 182 177 171 161 162 167 178 196 212 213 204 206 209 206 202 169 209 237 183 181 182 175 170 170 169 169 177 191 198 198 203 211 226 225 210 193 177 174 165 169 197 204 228 237 232 236 240 250 262 267 272 274 270 265 260 259 254 247 242 238 237 235 230 229 229 228 231 235 235
210 208 207 206 203 202 203 203 200 195 191 189 184 186 193 194 181 174 178 171 172 183 177 181 201 213 212 199 200 199 186 180 172 172 158 166 175 182 174 167 166 168 172 183 195 205 212 225 234 238 234 226 224 222 212 198 225 243 238 247 251 240 244 253 260 265 267 271 272 270 266 260 256 249 241 236 232 231 231 226 225 227 228 231 236 234
206 208 208 205 200 198 199 199 201 200 196 195 192 184 188 193 185 172 175 169 173 192 186 188 209 206 189 188 186 176 176 180 178 162 148 157 170 178 175 168 169 175 181 187 197 207 218 234 243 247 250 251 256 268 285 263 250 265 272 279 291 310 323 316 307 298 295 291 283 276 266 253 248 244 236 233 229 229 230 226 223 226 231 233 235 234
203 205 202 198 198 196 196 196 198 199 200 204 197 184 178 185 189 178 165 167 176 194 198 202 200 166 145 162 168 167 172 176 172 165 159 160 167 172 172 173 180 187 190 192 200 208 218 230 238 251 264 271 277 286 308 300 280 299 317 335 339 350 351 330 311 305 306 301 292 287 277 255 242 238 232 229 228 229 230 227 225 227 231 231 231 232
208 204 195 191 193 194 198 200 199 198 201 210 207 192 179 179 189 180 161 166 174 186 205 197 165 134 137 149 153 156 159 160 163 164 163 162 169 178 183 187 192 197 198 199 204 210 219 226 230 244 259 265 267 262 260 255 260 278 278 309 311 264 300 309 291 276 271 271 272 277 279 265 249 238 230 227 229 233 232 228 228 228 227 225 225 229
209 204 193 189 190 194 201 203 202 202 203 212 215 202 187 181 183 177 170 170 168 174 192 187 149 114 141 150 151 152 152 155 159 159 160 160 165 182 198 203 202 205 209 211 213 217 223 230 231 237 249 256 258 253 243 230 232 251 242 236 253 243 261 302 291 284 271 262 260 254 259 264 257 247 237 232 232 236 237 233 232 231 229 224 221 224
201 199 195 193 194 197 203 204 204 204 205 213 217 207 197 193 184 181 185 186 179 181 191 194 178 124 137 146 150 152 154 158 161 160 158 158 165 181 197 205 207 209 217 223 226 225 228 235 238 240 244 250 258 265 270 254 236 242 234 213 223 231 250 297 294 292 280 266 262 255 244 245 248 248 244 241 240 241 243 242 239 238 236 231 226 224
194 191 194 198 199 202 204 205 205 203 206 213 214 208 206 203 190 183 195 199 199 188 189 197 180 144 132 144 145 145 153 159 162 162 157 155 160 173 185 192 199 203 213 224 230 234 237 243 247 249 249 250 258 267 270 266 260 249 234 222 217 222 240 280 289 288 281 268 262 258 248 239 238 239 240 244 246 248 250 248 245 245 244 240 235 232
193 191 194 197 200 206 208 208 207 205 208 212 211 209 212 211 201 197 207 205 208 209 195 190 171 141 125 152 145 142 151 156 160 161 157 155 154 162 174 177 183 191 202 215 225 235 242 250 253 253 255 252 251 256 258 261 265 262 247 230 221 221 229 253 275 280 278 270 265 261 255 246 239 236 236 240 245 250 253 251 249 249 251 251 247 240
202 202 203 203 204 208 210 211 211 211 212 211 211 212 213 213 211 213 216 206 210 223 205 182 172 148 109 162 152 147 154 156 158 158 154 154 155 162 172 176 183 193 201 212 223 233 241 252 258 260 265 264 261 257 259 264 265 262 254 238 228 227 229 241 261 270 272 271 267 263 259 252 245 241 240 241 245 250 251 248 245 246 247 251 253 246
210 209 209 211 213 212 211 213 213 215 216 212 211 210 207 205 209 212 208 205 212 221 205 183 176 162 135 169 165 156 157 157 156 155 151 150 154 164 173 180 188 196 205 214 223 234 242 253 264 274 278 278 277 269 266 269 264 254 247 239 235 232 232 243 254 258 264 268 267 264 260 254 250 248 246 249 251 251 256 259 256 255 251 249 258 261
211 210 211 215 216 214 212 212 210 209 209 209 208 202 194 189 194 198 198 203 210 206 199 186 180 170 141 163 176 165 158 156 153 151 149 148 152 163 172 179 183 186 194 206 221 237 255 264 269 276 278 278 279 274 270 267 260 250 241 236 235 234 239 247 251 254 260 264 267 265 260 255 253 252 250 254 257 255 268 278 273 275 278 267 265 272
197 195 200 204 204 205 206 201 196 199 200 201 200 192 182 169 174 183 192 201 204 194 184 176 177 151 118 152 172 164 158 156 152 151 151 150 155 165 174 176 179 187 195 208 229 241 249 255 259 263 267 270 270 271 271 267 261 254 246 241 238 239 244 247 250 262 268 267 267 266 263 258 255 256 254 254 258 260 269 275 270 273 276 270 268 271
192 192 190 188 190 194 196 191 186 188 192 193 192 188 182 164 164 178 173 171 186 180 167 166 164 129 122 150 160 163 167 161 154 154 154 155 164 173 182 187 192 202 208 219 232 244 252 257 261 262 261 263 263 264 266 265 262 256 252 250 247 246 248 248 255 268 271 267 270 271 269 264 258 258 258 254 257 260 261 262 264 267 267 269 276 280
194 203 198 192 192 191 189 190 190 188 189 190 190 191 191 182 166 160 161 160 134 130 146 155 152 142 145 151 159 173 175 161 155 158 158 165 175 180 187 194 204 213 224 237 245 257 265 267 269 267 264 261 259 260 262 261 257 255 255 255 254 255 257 258 263 270 269 267 272 275 272 268 263 261 260 257 258 260 258 258 263 266 265 271 279 283
194 208 202 192 194 194 187 184 187 187 189 188 186 193 197 189 175 159 152 159 145 128 131 126 113 144 150 152 172 184 177 166 166 166 169 178 181 185 196 206 218 230 243 254 261 269 273 274 274 271 266 261 256 255 255 255 254 253 256 258 260 263 265 269 274 276 273 266 266 268 268 267 265 262 261 259 260 262 261 261 264 265 268 273 275 277
187 198 199 190 187 191 189 184 179 182 189 186 186 194 193 186 183 168 139 143 155 149 136 116 119 146 148 156 189 194 185 184 184 179 185 191 191 199 212 220 231 243 255 267 272 277 279 281 279 273 267 261 254 252 252 255 258 259 261 265 270 272 271 275 280 279 276 268 262 263 265 265 264 263 262 260 259 260 260 260 261 263 269 271 268 269
184 176 187 188 179 176 187 191 187 188 192 188 189 192 185 183 196 180 142 125 153 138 131 135 145 162 161 166 192 198 198 196 192 193 199 200 203 210 217 225 236 250 264 273 275 278 279 278 275 270 267 262 258 257 258 263 267 269 271 274 280 282 278 279 284 285 283 277 270 269 271 271 270 269 268 265 262 260 259 259 259 261 267 267 262 263
185 173 171 182 180 176 183 191 194 196 200 194 193 191 185 185 190 177 158 156 154 111 138 161 167 181 183 178 184 199 208 203 197 205 209 205 209 216 220 231 246 258 265 268 268 271 273 271 271 269 265 263 261 263 266 270 274 278 282 286 292 294 290 289 290 292 292 288 284 282 281 281 280 279 277 271 263 258 256 257 256 257 263 266 264 264
182 176 156 177 187 190 188 190 192 194 194 192 195 195 194 195 186 176 171 169 161 135 152 170 179 202 202 183 180 199 213 207 204 215 218 212 214 220 220 227 242 249 248 251 255 260 264 266 268 267 263 261 263 267 272 276 280 284 289 297 306 311 311 310 308 303 299 294 290 290 291 292 291 291 292 285 267 254 251 251 252 256 262 266 266 267
179 176 149 168 185 189 190 193 194 192 188 184 190 192 190 187 177 173 167 163 163 148 146 157 179 209 199 181 182 202 215 215 216 225 226 219 219 226 227 224 226 226 228 238 248 253 259 266 268 265 262 261 264 269 275 283 292 297 300 304 309 312 312 312 312 306 300 295 292 293 296 299 299 300 304 303 282 255 246 245 249 257 261 260 262 265
171 167 150 155 170 178 185 192 193 193 190 186 188 190 188 183 173 168 159 157 161 154 162 164 163 203 192 182 190 207 218 224 226 229 225 217 223 233 231 211 200 209 226 238 245 250 258 269 275 275 273 273 274 277 284 292 300 305 306 305 303 301 298 297 299 300 300 299 298 298 299 298 299 300 303 309 299 263 242 241 248 257 257 254 256 260
170 157 143 140 155 171 182 188 186 187 189 188 189 191 192 192 187 181 180 176 160 142 160 166 142 195 189 186 196 211 218 225 231 232 223 219 227 228 218 204 197 210 231 243 249 253 259 269 278 285 288 291 291 291 293 295 299 302 305 304 303 301 301 300 302 304 306 306 305 305 305 302 298 295 293 297 296 267 240 238 248 255 253 251 254 258
184 162 134 121 122 143 162 174 177 179 184 186 189 191 192 197 200 199 203 192 171 149 153 160 142 191 188 189 199 210 215 223 234 236 230 225 216 203 197 203 211 225 236 245 255 260 265 273 281 290 294 298 298 296 295 294 295 299 303 306 306 305 306 308 308 309 310 311 311 311 311 309 303 296 290 284 279 262 245 243 250 254 253 254 257 260
188 173 145 122 103 116 135 155 168 174 179 184 190 193 194 197 198 201 205 192 176 168 169 169 167 187 188 192 199 205 208 213 221 228 230 221 205 200 202 207 214 225 237 248 260 269 279 285 292 296 296 298 298 296 295 294 295 297 301 304 304 304 305 306 307 308 308 308 309 312 313 311 308 302 294 285 277 266 255 251 251 253 255 257 259 260
183 175 164 150 134 137 140 151 163 167 171 179 187 192 194 195 196 201 196 181 177 179 179 179 181 183 187 193 200 203 206 209 216 226 230 211 194 203 216 220 222 226 236 250 259 270 287 296 299 299 298 297 297 296 296 296 297 298 300 302 301 301 302 304 305 304 304 305 307 310 312 311 309 305 299 292 283 273 265 259 255 254 255 257 258 260
182 171 169 170 161 149 152 160 166 170 172 175 180 185 190 193 198 205 199 188 189 185 182 191 201 194 189 193 201 206 208 211 219 232 233 207 189 197 210 221 233 238 242 249 256 272 291 299 298 295 295 295 295 296 297 298 299 299 299 299 298 298 300 301 302 300 300 302 305 309 311 312 313 310 305 298 291 283 274 266 260 258 257 257 258 259
182 167 161 172 166 149 148 155 162 172 176 175 176 179 185 189 195 201 201 199 198 188 189 202 207 203 195 195 201 206 208 212 219 231 231 209 199 205 211 216 225 238 248 254 266 284 294 298 296 291 291 294 295 298 300 301 301 300 299 298 297 296 297 297 297 297 298 300 303 307 309 312 314 313 309 303 297 292 286 277 268 262 259 259 259 258
184 169 157 165 161 147 148 152 157 170 175 173 174 177 182 188 192 199 205 206 200 195 205 208 203 201 196 196 200 203 205 209 208 209 217 214 212 220 227 225 226 245 263 273 285 295 298 300 297 292 295 298 300 305 308 307 305 301 299 297 296 296 296 296 297 297 298 300 303 306 307 310 313 312 309 303 298 295 292 286 277 267 261 260 259 258
183 168 157 164 157 144 147 149 152 170 175 168 168 172 178 185 190 196 201 200 196 198 206 203 201 202 198 197 199 198 201 203 198 204 217 216 206 216 230 234 241 260 275 285 291 293 296 301 299 296 300 305 309 312 313 312 308 303 299 296 295 295 295 296 297 297 298 301 304 306 307 310 314 315 313 307 300 296 293 287 282 274 265 259 257 256
181 163 152 160 152 135 138 147 147 169 177 166 160 161 165 172 176 182 185 183 186 193 193 190 199 202 198 196 197 196 196 196 198 213 228 222 210 219 234 241 248 261 276 288 292 289 290 297 302 302 304 307 310 310 312 314 312 308 303 299 297 297 297 298 298 299 299 300 302 303 305 308 313 318 320 315 307 300 294 288 281 276 269 261 257 255
178 160 152 160 149 125 129 143 139 155 172 163 152 150 153 161 165 167 171 173 179 187 187 186 194 199 197 194 194 195 196 198 206 220 232 228 226 233 238 240 250 266 282 293 291 285 285 291 297 300 303 305 306 305 307 312 315 314 310 304 301 301 301 301 302 302 303 302 301 301 302 306 311 317 320 318 312 305 298 290 281 276 273 268 262 258
173 163 159 162 149 128 135 142 137 144 157 148 137 140 146 156 166 169 170 172 176 180 185 188 192 197 200 196 194 195 197 202 212 218 221 230 240 239 239 248 261 269 271 277 282 283 284 287 290 293 297 302 303 302 302 304 309 314 314 311 310 308 307 306 306 306 306 305 303 300 301 305 310 316 319 317 312 308 304 296 283 274 272 271 268 264
171 169 167 165 152 141 142 143 142 146 145 137 144 148 150 159 170 175 174 173 173 173 177 183 185 191 198 196 192 194 199 203 213 219 225 235 234 227 234 255 268 267 271 284 291 292 289 291 296 299 301 305 306 305 306 308 312 316 318 318 316 313 312 310 308 308 307 307 306 304 304 307 312 318 319 315 311 310 308 301 286 274 270 268 267 264
174 172 173 168 157 149 145 144 147 142 137 157 170 166 155 160 173 181 177 172 170 169 171 176 176 182 193 192 182 187 199 206 210 210 207 209 217 229 253 268 267 268 282 296 296 294 295 299 304 307 309 310 310 310 313 316 316 317 319 318 316 313 312 311 309 308 308 309 310 309 307 308 312 317 319 316 309 303 304 303 291 281 277 271 267 265
178 180 175 162 151 150 147 143 151 147 147 164 181 180 168 164 169 177 166 156 160 158 154 166 169 170 183 186 176 181 191 196 202 210 220 239 260 272 272 267 270 281 290 294 290 287 293 300 303 304 304 305 308 310 313 315 315 316 317 317 314 311 310 310 310 309 309 310 310 310 309 308 310 314 317 318 312 302 306 309 296 284 280 276 269 262
177 190 181 162 151 155 142 108 110 135 155 179 187 184 186 185 180 183 168 156 162 153 140 152 165 162 176 189 188 193 201 205 213 224 238 252 259 262 263 270 286 293 289 285 283 282 287 294 297 297 298 300 303 305 307 311 313 314 314 313 311 308 306 308 309 309 309 310 310 310 310 308 309 311 312 314 315 316 324 331 323 298 277 268 262 255
166 192 191 178 164 164 149 116 109 141 184 199 192 182 184 183 181 184 169 163 169 158 148 159 176 174 183 192 195 201 206 206 210 216 224 236 240 246 261 274 281 283 281 278 280 284 289 293 294 296 297 299 301 304 307 312 315 316 315 311 307 305 307 310 311 310 309 310 311 311 312 309 308 309 310 310 311 314 323 339 349 339 296 265 253 236
170 182 191 190 176 171 163 140 134 174 185 192 191 180 173 175 171 164 158 165 173 167 158 165 176 180 183 184 184 187 190 193 207 221 229 237 245 254 267 274 275 279 281 280 283 288 293 297 299 299 299 300 302 305 309 313 315 318 318 313 307 306 310 314 314 311 310 312 313 315 317 316 313 310 310 311 312 313 319 337 356 1 359 144 187 204
173 171 174 179 175 175 172 153 147 180 179 179 183 178 174 173 164 152 155 172 177 173 168 171 177 178 178 179 180 184 194 214 233 244 243 244 255 266 273 277 278 280 284 288 295 300 301 302 302 302 302 302 304 308 312 315 318 320 319 317 314 312 313 315 314 313 316 320 322 323 321 321 320 314 309 310 313 317 320 330 350 2 5 333 290 275
166 166 165 165 166 174 175 156 144 180 181 174 177 179 176 170 163 163 173 175 178 179 175 174 176 176 176 181 192 211 234 248 248 247 246 245 257 270 277 283 287 292 298 303 307 311 313 313 312 311 310 311 314 318 322 324 327 328 326 325 324 321 318 316 315 316 319 322 324 325 322 320 320 317 307 302 306 315 322 325 331 341 345 332 308 269
164 160 156 158 161 169 171 152 130 160 175 173 176 178 171 162 161 176 169 158 175 188 188 184 183 182 184 194 215 234 234 231 224 224 231 242 261 275 280 284 290 296 302 308 314 323 329 330 327 323 321 321 324 328 331 332 332 330 330 331 331 329 327 323 319 318 321 321 319 320 321 321 321 318 307 297 294 299 316 328 325 322 329 330 307 243
172 162 156 160 161 162 163 153 139 167 176 175 176 174 168 162 158 168 162 148 164 178 183 182 181 184 196 203 204 208 207 201 200 211 235 259 271 276 275 276 287 299 315 329 340 345 345 342 337 330 326 327 330 333 336 335 330 329 331 333 335 337 337 334 329 326 328 329 326 323 324 325 325 322 310 296 290 286 286 313 315 296 300 310 296 269
174 168 166 170 168 163 166 167 162 167 172 174 174 170 167 162 148 149 156 146 150 158 153 153 163 171 183 184 180 187 193 191 188 192 222 260 244 229 253 35 22 16 11 360 352 349 348 347 345 342 341 342 344 345 345 342 338 335 335 336 339 343 348 348 344 340 337 337 337 335 332 332 333 332 322 303 291 289 288 288 279 261 264 274 274 267
174 176 177 179 176 172 174 173 160 153 161 167 167 166 166 162 148 140 147 143 144 152 151 150 160 169 171 167 164 163 158 153 151 145 137 129 119 96 60 39 23 6 359 355 351 351 352 352 352 352 353 354 354 353 352 351 351 348 342 341 344 347 351 354 352 349 345 343 343 344 342 341 340 340 339 328 306 292 291 296 300 283 262 255 254 255
182 184 180 179 178 171 158 153 152 151 155 159 161 164 167 166 155 144 148 153 157 156 152 154 164 171 165 159 159 155 145 141 143 140 131 121 96 63 35 21 10 3 1 359 356 355 355 356 357 356 355 357 357 356 356 356 358 356 352 351 351 351 352 353 351 348 347 346 347 348 348 348 345 340 340 343 339 323 309 302 301 314 312 267 250 249
177 179 176 175 179 171 153 152 157 155 156 160 162 161 163 166 160 145 144 151 158 155 149 152 160 162 154 148 150 152 150 153 161 150 132 112 75 47 30 20 13 11 9 5 3 2 1 1 1 359 358 359 358 357 357 357 359 0 360 359 358 356 354 353 351 348 349 351 351 349 346 346 346 340 335 339 344 343 337 328 318 319 331 331 284 253
174 175 172 172 178 173 163 162 161 155 156 162 161 156 157 160 154 144 142 146 150 147 145 148 153 152 148 144 145 150 156 155 149 135 123 108 82 63 49 38 33 29 24 19 14 10 9 8 8 7 7 6 5 3 0 358 357 358 359 360 359 359 358 357 355 354 355 355 353 350 347 345 345 342 337 334 335 337 338 337 332 327 327 328 322 301
174 175 171 171 175 170 166 167 163 157 156 156 151 149 150 151 147 142 140 140 141 140 142 145 145 144 144 143 141 140 138 132 124 115 109 101 89 79 68 58 52 45 37 32 26 20 18 17 15 14 14 12 10 8 6 3 1 0 360 359 357 356 357 359 0 2 1 358 355 351 350 349 347 345 343 339 334 329 328 330 330 327 325 324 320 315
170 173 170 172 174 173 174 172 167 164 159 152 147 148 147 146 146 143 137 135 134 132 134 137 137 137 138 137 131 127 123 117 112 106 99 91 82 74 67 60 55 48 42 37 32 26 24 22 20 20 20 18 15 12 9 7 5 3 3 2 358 355 353 353 358 2 3 0 357 353 352 352 350 349 350 350 347 340 333 328 324 320 317 315 314 312
162 154 149 157 162 163 168 162 157 160 158 150 146 148 146 143 144 141 137 135 132 128 127 129 129 130 132 129 124 119 113 107 101 95 89 84 78 71 66 62 56 51 46 41 37 33 30 27 25 23 22 20 18 16 14 11 8 5 4 5 3 359 356 353 353 355 358 360 359 358 357 356 354 353 354 355 357 356 352 345 337 329 321 313 309 307
Height
3085 3086 3086 3087 3089 3092 3096 3099 3103 3105 3107 3109 3110 3112 3115 3116 3119 3121 3122 3124 3125 3126 3127 3128 3128 3127 3129 3131 3132 3133 3135 3135 3136 3136 3135 3135 3137 3140 3141 3143 3144 3145 3146 3147 3148 3148 3148 3148 3149 3149 3149 3149 3149 3149 3148 3147 3146 3145 3145 3146 3145 3145 3146 3147 3147 3148 3147 3147 3147 3146 3147 3147 3147 3147 3147 3147 3147 3147 3148 3148 3149 3150 3152 3153 3154 3154
3083 3083 3084 3087 3090 3094 3097 3100 3102 3104 3106 3108 3110 3111 3113 3116 3118 3120 3121 3123 3124 3124 3124 3126 3126 3126 3127 3129 3131 3132 3134 3135 3135 3136 3135 3135 3137 3140 3141 3142 3143 3144 3145 3146 3147 3147 3148 3148 3147 3146 3145 3144 3144 3143 3143 3144 3145 3143 3143 3145 3145 3145 3147 3147 3147 3147 3146 3146 3145 3144 3145 3145 3144 3145 3145 3145 3145 3144 3144 3144 3145 3147 3149 3150 3151 3152
3080 3081 3084 3088 3092 3094 3097 3099 3101 3103 3105 3107 3109 3111 3112 3114 3117 3119 3120 3121 3122 3122 3122 3123 3124 3124 3126 3128 3129 3131 3132 3134 3135 3135 3135 3136 3137 3139 3140 3141 3142 3143 3144 3145 3145 3145 3145 3145 3144 3143 3143 3145 3146 3147 3148 3148 3148 3148 3148 3149 3150 3150 3151 3150 3149 3147 3147 3147 3145 3144 3143 3143 3142 3142 3142 3143 3142 3142 3142 3142 3142 3143 3145 3147 3148 3150
3078 3080 3084 3088 3091 3093 3096 3098 3100 3102 3104 3105 3107 3109 3111 3113 3115 3117 3119 3120 3120 3121 3121 3121 3122 3123 3125 3126 3128 3129 3131 3133 3134 3135 3135 3136 3137 3138 3139 3140 3140 3141 3142 3143 3143 3143 3143 3142 3142 3143 3145 3146 3147 3148 3150 3150 3150 3151 3152 3152 3152 3152 3150 3149 3147 3145 3144 3144 3144 3143 3142 3142 3141 3140 3140 3140 3140 3140 3140 3140 3140 3140 3142 3144 3146 3147
3077 3080 3084 3087 3090 3092 3094 3096 3098 3100 3102 3103 3106 3108 3110 3112 3114 3116 3117 3118 3119 3120 3119 3120 3122 3124 3124 3125 3126 3127 3130 3132 3133 3134 3135 3136 3136 3137 3138 3138 3139 3140 3140 3141 3141 3141 3140 3140 3142 3143 3143 3143 3144 3145 3147 3148 3148 3149 3150 3150 3150 3149 3148 3147 3145 3143 3141 3140 3140 3140 3140 3141 3140 3139 3139 3138 3138 3138 3138 3139 3138 3138 3138 3141 3143 3145
3078 3080 3084 3086 3088 3090 3092 3094 3096 3098 3100 3102 3104 3107 3110 3111 3113 3115 3116 3117 3118 3118 3118 3118 3121 3124 3124 3124 3125 3126 3128 3130 3132 3133 3134 3134 3135 3136 3137 3137 3138 3138 3139 3140 3140 3139 3139 3139 3140 3141 3141 3141 3142 3143 3144 3145 3146 3147 3147 3147 3147 3147 3147 3146 3144 3143 3141 3139 3137 3137 3138 3138 3139 3139 3138 3138 3138 3139 3139 3139 3138 3137 3136 3138 3141 3143
3077 3080 3083 3085 3087 3088 3090 3092 3094 3096 3099 3100 3102 3106 3109 3110 3112 3113 3114 3115 3116 3116 3116 3117 3119 3122 3124 3123 3124 3125 3127 3129 3130 3132 3132 3133 3134 3135 3135 3136 3136 3137 3138 3139 3139 3138 3138 3138 3138 3139 3140 3140 3141 3141 3142 3143 3144 3144 3144 3144 3144 3145 3145 3144 3143 3142 3141 3139 3137 3136 3136 3135 3136 3137 3138 3138 3138 3138 3139 3139 3138 3137 3137 3138 3140 3142
3075 3078 3081 3083 3085 3086 3087 3089 3091 3095 3097 3098 3101 3105 3108 3109 3111 3112 3113 3114 3115 3115 3115 3116 3117 3120 3123 3123 3123 3124 3125 3127 3129 3130 3131 3132 3132 3133 3134 3135 3135 3136 3137 3137 3137 3137 3137 3137 3137 3138 3139 3140 3140 3140 3141 3141 3142 3142 3142 3142 3141 3141 3142 3141 3141 3140 3139 3138 3137 3135 3134 3134 3134 3134 3136 3137 3137 3137 3138 3138 3137 3136 3137 3138 3140 3141
3074 3077 3078 3080 3083 3084 3085 3087 3090 3093 3095 3097 3101 3105 3106 3108 3110 3111 3112 3112 3113 3114 3114 3115 3115 3117 3122 3122 3122 3123 3124 3125 3127 3129 3130 3130 3131 3132 3133 3134 3134 3135 3136 3136 3136 3136 3136 3135 3136 3136 3137 3138 3138 3139 3139 3140 3140 3140 3140 3140 3139 3139 3138 3138 3138 3137 3137 3137 3136 3135 3134 3133 3133 3133 3133 3134 3134 3136 3137 3137 3136 3136 3136 3138 3139 3140
3073 3075 3077 3079 3080 3081 3084 3088 3090 3093 3094 3097 3101 3103 3105 3107 3108 3109 3111 3111 3112 3112 3112 3113 3113 3115 3121 3122 3121 3122 3123 3124 3126 3127 3129 3130 3130 3131 3132 3133 3134 3134 3134 3135 3135 3135 3135 3134 3134 3135 3135 3136 3136 3137 3137 3138 3138 3138 3138 3137 3137 3136 3135 3135 3135 3135 3135 3135 3135 3134 3133 3132 3131 3131 3131 3131 3131 3133 3134 3134 3133 3133 3135 3137 3137 3138
3072 3074 3076 3077 3078 3081 3085 3087 3089 3091 3094 3096 3099 3101 3104 3105 3107 3108 3109 3110 3111 3110 3110 3111 3112 3113 3118 3122 3121 3121 3122 3123 3125 3126 3127 3128 3129 3129 3131 3132 3132 3133 3133 3133 3134 3133 3133 3133 3133 3133 3134 3134 3134 3134 3135 3135 3136 3135 3135 3135 3134 3133 3132 3132 3132 3132 3132 3133 3133 3133 3132 3131 3130 3129 3129 3129 3129 3130 3130 3131 3130 3131 3134 3135 3135 3136
3071 3072 3074 3075 3077 3081 3083 3084 3086 3089 3091 3094 3096 3099 3102 3104 3106 3107 3108 3109 3109 3108 3107 3109 3111 3111 3115 3120 3120 3120 3121 3122 3123 3125 3126 3127 3127 3128 3129 3130 3131 3132 3132 3132 3132 3132 3132 3132 3132 3132 3132 3132 3132 3133 3133 3133 3133 3132 3132 3132 3132 3131 3130 3130 3131 3131 3131 3131 3130 3130 3130 3129 3128 3127 3127 3128 3129 3129 3130 3131 3130 3131 3133 3134 3133 3134
3069 3070 3071 3073 3076 3078 3080 3081 3083 3086 3088 3091 3093 3096 3099 3101 3104 3105 3105 3106 3106 3105 3106 3108 3109 3111 3114 3117 3119 3119 3120 3120 3122 3123 3124 3125 3126 3126 3128 3129 3130 3130 3131 3131 3131 3131 3131 3131 3131 3131 3131 3131 3131 3131 3131 3130 3130 3130 3130 3130 3129 3129 3128 3129 3130 3131 3130 3129 3128 3127 3127 3127 3127 3126 3126 3128 3128 3128 3129 3130 3130 3131 3131 3131 3131 3132
3068 3069 3070 3071 3073 3075 3076 3077 3079 3081 3084 3087 3090 3092 3094 3095 3099 3102 3103 3104 3104 3104 3106 3107 3108 3111 3115 3117 3118 3118 3118 3119 3121 3122 3123 3124 3125 3126 3127 3128 3128 3129 3129 3129 3129 3129 3130 3130 3130 3130 3129 3129 3129 3129 3129 3128 3128 3128 3127 3127 3127 3127 3128 3128 3129 3128 3128 3127 3126 3125 3125 3125 3125 3124 3126 3127 3126 3126 3126 3127 3128 3128 3128 3128 3129 3130
3065 3066 3066 3068 3070 3072 3074 3076 3077 3079 3082 3085 3088 3091 3092 3091 3094 3098 3100 3101 3102 3103 3106 3107 3108 3111 3113 3115 3116 3116 3117 3118 3120 3121 3122 3123 3124 3125 3126 3127 3127 3128 3128 3128 3128 3128 3128 3128 3128 3128 3128 3127 3127 3127 3127 3126 3126 3126 3125 3125 3125 3126 3126 3126 3126 3126 3126 3126 3125 3124 3123 3123 3123 3123 3125 3125 3124 3123 3123 3123 3125 3126 3127 3127 3128 3127
3062 3063 3064 3067 3069 3071 3073 3075 3077 3079 3081 3084 3087 3089 3091 3091 3093 3096 3098 3100 3101 3103 3106 3108 3109 3111 3113 3114 3115 3115 3116 3118 3119 3121 3122 3122 3123 3124 3125 3126 3126 3126 3127 3127 3127 3127 3126 3126 3126 3126 3126 3125 3125 3125 3125 3125 3124 3124 3123 3123 3123 3124 3123 3123 3123 3123 3123 3123 3122 3121 3120 3120 3120 3121 3122 3122 3122 3121 3120 3121 3122 3123 3124 3125 3125 3125
3061 3062 3063 3065 3068 3070 3073 3074 3076 3077 3078 3081 3084 3086 3089 3091 3093 3095 3097 3100 3100 3102 3107 3109 3110 3112 3113 3114 3115 3115 3116 3117 3118 3119 3121 3121 3122 3123 3124 3124 3125 3125 3125 3125 3125 3125 3124 3124 3124 3123 3123 3123 3123 3123 3123 3123 3122 3122 3121 3120 3120 3121 3120 3120 3120 3120 3119 3119 3118 3118 3117 3116 3117 3118 3119 3119 3118 3118 3118 3119 3119 3120 3121 3122 3122 3122
3059 3061 3062 3064 3066 3069 3071 3073 3075 3076 3077 3078 3081 3084 3087 3091 3092 3092 3096 3100 3100 3102 3108 3110 3110 3111 3112 3112 3113 3114 3114 3115 3117 3118 3119 3120 3121 3122 3123 3123 3123 3123 3124 3123 3123 3123 3122 3122 3122 3121 3121 3121 3121 3121 3121 3121 3120 3120 3119 3118 3118 3119 3118 3118 3118 3118 3117 3116 3116 3116 3115 3114 3115 3116 3116 3115 3115 3114 3114 3115 3116 3118 3119 3120 3119 3119
3057 3059 3060 3063 3065 3067 3069 3071 3072 3074 3076 3078 3080 3083 3085 3087 3089 3090 3093 3096 3099 3105 3110 3110 3110 3111 3111 3111 3111 3112 3112 3113 3116 3117 3118 3119 3120 3120 3121 3121 3122 3122 3122 3122 3122 3121 3121 3120 3120 3119 3119 3119 3119 3119 3119 3119 3119 3118 3118 3117 3117 3117 3117 3116 3116 3115 3115 3114 3114 3114 3114 3113 3113 3113 3112 3111 3110 3109 3110 3111 3113 3115 3117 3117 3116 3116
3055 3057 3059 3061 3063 3065 3067 3068 3069 3071 3073 3077 3080 3082 3083 3084 3086 3088 3090 3091 3095 3104 3108 3109 3111 3110 3109 3110 3110 3111 3111 3112 3115 3115 3116 3118 3118 3118 3119 3120 3121 3121 3121 3121 3120 3120 3119 3119 3119 3118 3118 3118 3118 3118 3118 3118 3117 3117 3117 3116 3116 3116 3115 3114 3114 3114 3113 3113 3113 3113 3113 3112 3110 3110 3108 3106 3104 3104 3105 3107 3110 3112 3114 3115 3114 3113
3054 3055 3057 3059 3061 3063 3064 3065 3067 3069 3071 3073 3076 3078 3080 3082 3084 3087 3089 3090 3092 3098 3102 3106 3109 3107 3106 3109 3109 3109 3110 3111 3113 3114 3114 3116 3117 3117 3118 3119 3119 3120 3120 3120 3119 3119 3118 3118 3118 3118 3117 3117 3117 3117 3117 3117 3116 3116 3116 3116 3115 3115 3114 3113 3113 3113 3113 3112 3111 3111 3111 3110 3108 3107 3105 3102 3100 3099 3101 3104 3108 3110 3111 3111 3111 3111
3053 3054 3055 3057 3059 3061 3062 3064 3066 3068 3070 3071 3073 3076 3078 3080 3082 3084 3088 3090 3090 3093 3096 3100 3102 3102 3104 3107 3107 3108 3109 3110 3111 3112 3113 3115 3115 3115 3116 3117 3118 3118 3118 3118 3118 3118 3118 3117 3117 3117 3116 3116 3116 3116 3116 3115 3115 3115 3115 3115 3114 3114 3114 3113 3112 3112 3111 3110 3109 3108 3108 3108 3106 3105 3103 3100 3098 3098 3099 3103 3106 3107 3107 3108 3108 3108
3052 3053 3054 3056 3058 3059 3061 3063 3065 3067 3069 3071 3073 3075 3077 3079 3081 3082 3085 3088 3090 3092 3094 3096 3098 3099 3102 3104 3105 3106 3107 3109 3110 3111 3112 3113 3114 3114 3115 3116 3117 3117 3117 3117 3116 3117 3117 3117 3116 3116 3115 3115 3115 3114 3114 3113 3113 3113 3113 3113 3112 3112 3112 3111 3110 3110 3109 3108 3107 3106 3105 3105 3104 3103 3101 3100 3099 3098 3099 3102 3104 3104 3104 3105 3106 3106
3051 3052 3053 3055 3057 3059 3060 3062 3064 3066 3068 3071 3072 3074 3077 3078 3080 3082 3083 3085 3087 3090 3092 3094 3097 3098 3100 3102 3103 3104 3106 3108 3109 3110 3111 3112 3112 3113 3114 3115 3115 3115 3115 3115 3115 3115 3115 3115 3115 3115 3114 3114 3113 3112 3112 3111 3111 3111 3111 3110 3110 3110 3109 3109 3108 3107 3107 3106 3104 3103 3102 3102 3101 3101 3100 3099 3098 3099 3100 3101 3102 3102 3102 3103 3103 3104
3050 3051 3052 3054 3056 3059 3061 3062 3063 3065 3067 3069 3071 3073 3076 3078 3079 3081 3082 3084 3086 3088 3090 3091 3094 3095 3097 3099 3101 3103 3105 3107 3108 3108 3109 3111 3112 3112 3113 3114 3114 3113 3113 3114 3114 3114 3114 3114 3114 3113 3113 3113 3112 3111 3110 3110 3109 3109 3109 3109 3108 3108 3107 3106 3106 3105 3105 3104 3103 3102 3100 3099 3099 3098 3098 3097 3097 3098 3099 3099 3099 3099 3099 3099 3100 3100
3049 3050 3052 3053 3054 3057 3059 3060 3061 3064 3066 3068 3070 3072 3075 3077 3078 3080 3081 3083 3084 3086 3088 3089 3091 3093 3095 3097 3099 3101 3103 3105 3106 3106 3108 3110 3111 3112 3112 3112 3112 3112 3112 3112 3112 3112 3113 3112 3112 3112 3112 3111 3110 3110 3109 3108 3108 3107 3107 3107 3106 3106 3105 3105 3104 3104 3103 3103 3102 3100 3099 3098 3096 3095 3095 3094 3094 3095 3096 3096 3096 3096 3095 3095 3096 3097
3048 3050 3052 3053 3054 3055 3057 3058 3060 3063 3065 3067 3070 3072 3074 3076 3078 3079 3080 3081 3082 3085 3087 3088 3089 3090 3092 3094 3097 3099 3101 3103 3104 3105 3107 3109 3110 3111 3111 3111 3111 3111 3111 3111 3111 3111 3111 3111 3111 3111 3110 3110 3109 3108 3108 3107 3106 3106 3105 3105 3104 3104 3104 3103 3103 3102 3102 3101 3100 3099 3097 3096 3094 3093 3092 3091 3091 3091 3091 3092 3092 3092 3091 3091 3092 3093
3047 3049 3051 3053 3054 3055 3056 3058 3060 3063 3064 3066 3068 3071 3073 3075 3076 3078 3079 3080 3081 3083 3085 3086 3088 3089 3090 3092 3094 3096 3099 3101 3103 3104 3106 3107 3109 3109 3110 3110 3111 3110 3110 3110 3110 3110 3110 3110 3110 3110 3109 3108 3108 3107 3106 3106 3105 3104 3103 3103 3103 3103 3102 3102 3101 3101 3100 3099 3098 3097 3095 3094 3092 3091 3089 3088 3087 3087 3087 3087 3087 3087 3087 3087 3088 3088
3047 3049 3051 3053 3054 3055 3057 3058 3060 3062 3064 3066 3068 3070 3072 3074 3075 3077 3078 3079 3080 3082 3083 3085 3087 3088 3089 3091 3092 3095 3098 3100 3103 3104 3105 3106 3107 3108 3109 3109 3109 3109 3109 3109 3109 3109 3109 3109 3109 3108 3108 3107 3106 3106 3105 3104 3104 3103 3102 3101 3101 3100 3100 3100 3099 3098 3097 3097 3095 3094 3093 3092 3090 3088 3087 3085 3085 3083 3082 3082 3082 3083 3083 3083 3084 3084
3046 3048 3050 3052 3054 3056 3057 3059 3061 3063 3064 3065 3067 3069 3071 3073 3075 3076 3077 3078 3080 3081 3082 3084 3086 3087 3088 3090 3092 3094 3097 3099 3102 3103 3103 3105 3106 3107 3107 3108 3108 3108 3108 3108 3108 3108 3108 3108 3107 3107 3107 3106 3105 3104 3104 3103 3102 3101 3100 3100 3099 3098 3098 3097 3096 3095 3095 3094 3093 3092 3090 3089 3088 3086 3084 3082 3081 3080 3079 3077 3077 3078 3079 3079 3079 3080
3045 3047 3050 3052 3053 3056 3059 3060 3062 3064 3065 3066 3068 3069 3071 3073 3074 3076 3077 3078 3079 3080 3082 3083 3085 3086 3087 3089 3091 3094 3096 3098 3100 3101 3102 3104 3105 3106 3106 3107 3107 3107 3107 3107 3107 3106 3106 3106 3106 3105 3105 3105 3104 3103 3103 3102 3101 3100 3099 3098 3097 3096 3095 3094 3093 3093 3092 3092 3091 3089 3088 3086 3085 3083 3081 3079 3078 3077 3075 3074 3073 3073 3074 3075 3075 3076
3044 3047 3050 3051 3053 3057 3060 3061 3062 3064 3066 3067 3068 3070 3071 3072 3074 3075 3076 3078 3079 3080 3082 3083 3084 3085 3087 3088 3091 3093 3095 3097 3099 3100 3101 3103 3104 3104 3105 3105 3106 3106 3106 3106 3105 3105 3105 3104 3104 3104 3104 3103 3102 3102 3101 3101 3100 3099 3098 3097 3095 3094 3093 3092 3091 3090 3089 3089 3088 3087 3086 3084 3083 3081 3079 3077 3074 3073 3072 3071 3070 3069 3069 3070 3070 3071
3045 3047 3049 3051 3054 3058 3060 3061 3063 3064 3066 3068 3069 3070 3071 3072 3074 3075 3076 3077 3079 3080 3082 3082 3083 3085 3086 3088 3090 3092 3095 3097 3098 3099 3100 3101 3102 3103 3104 3104 3104 3105 3105 3105 3104 3104 3104 3103 3102 3102 3102 3101 3101 3100 3099 3099 3098 3097 3096 3095 3093 3092 3091 3090 3089 3088 3087 3086 3086 3085 3084 3082 3080 3079 3078 3075 3072 3070 3069 3069 3068 3067 3066 3065 3066 3067
3045 3047 3049 3051 3054 3058 3060 3061 3063 3064 3067 3070 3071 3071 3071 3073 3073 3074 3075 3077 3078 3080 3081 3082 3083 3085 3086 3088 3090 3092 3094 3096 3097 3098 3099 3100 3101 3102 3102 3102 3103 3103 3103 3103 3103 3103 3102 3102 3101 3100 3100 3099 3098 3098 3097 3096 3095 3095 3094 3093 3092 3090 3089 3088 3087 3086 3085 3084 3084 3083 3081 3080 3078 3077 3075 3073 3071 3069 3067 3066 3065 3064 3063 3062 3062 3062
3045 3047 3049 3051 3053 3057 3059 3061 3063 3066 3068 3070 3071 3071 3072 3073 3074 3075 3076 3077 3078 3079 3081 3082 3083 3084 3086 3088 3090 3092 3094 3095 3096 3097 3098 3099 3100 3100 3100 3101 3102 3102 3102 3102 3102 3101 3101 3100 3099 3099 3098 3097 3097 3096 3096 3095 3094 3093 3092 3091 3090 3089 3088 3087 3085 3084 3083 3082 3081 3080 3079 3078 3077 3075 3073 3071 3069 3068 3066 3064 3063 3061 3060 3059 3059 3059
3045 3046 3048 3050 3053 3056 3059 3060 3063 3066 3069 3069 3070 3071 3072 3073 3074 3075 3076 3077 3078 3079 3081 3082 3083 3085 3086 3088 3090 3092 3093 3094 3095 3096 3097 3098 3099 3099 3100 3100 3100 3100 3100 3100 3100 3100 3099 3099 3098 3098 3097 3096 3096 3095 3094 3094 3093 3091 3090 3089 3088 3087 3086 3085 3084 3082 3081 3080 3079 3078 3077 3076 3075 3073 3072 3070 3068 3066 3064 3062 3060 3058 3057 3056 3055 3055
3045 3046 3047 3050 3053 3056 3058 3061 3064 3067 3068 3069 3070 3071 3072 3073 3074 3075 3076 3078 3079 3080 3082 3083 3084 3085 3087 3088 3090 3091 3092 3093 3095 3096 3097 3097 3098 3098 3099 3099 3099 3099 3099 3099 3098 3098 3097 3097 3097 3096 3096 3095 3094 3094 3093 3092 3091 3090 3088 3087 3086 3085 3084 3083 3082 3081 3079 3078 3076 3076 3075 3074 3072 3071 3070 3068 3066 3064 3062 3060 3057 3055 3053 3052 3052 3052
3045 3046 3047 3049 3052 3055 3057 3060 3065 3067 3068 3068 3069 3070 3071 3072 3073 3074 3076 3078 3079 3080 3082 3083 3085 3086 3087 3088 3090 3091 3092 3093 3094 3095 3096 3096 3097 3097 3097 3097 3097 3097 3097 3097 3096 3096 3096 3095 3095 3094 3093 3093 3092 3092 3091 3090 3089 3088 3087 3085 3084 3083 3082 3081 3080 3079 3077 3076 3074 3073 3072 3071 3070 3069 3067 3066 3064 3063 3061 3058 3055 3052 3051 3050 3049 3049
3045 3046 3047 3049 3052 3054 3056 3059 3063 3065 3066 3067 3068 3070 3071 3072 3073 3075 3077 3078 3079 3080 3082 3083 3085 3086 3087 3088 3089 3090 3091 3092 3093 3094 3095 3095 3096 3096 3096 3096 3096 3096 3096 3095 3095 3095 3094 3093 3093 3092 3091 3091 3090 3090 3089 3088 3087 3086 3085 3084 3083 3081 3080 3079 3078 3077 3076 3074 3072 3071 3070 3069 3068 3067 3065 3063 3062 3060 3059 3058 3055 3053 3052 3051 3050 3050
3045 3046 3048 3049 3051 3054 3056 3059 3062 3064 3064 3066 3068 3069 3071 3072 3073 3075 3076 3077 3078 3080 3081 3083 3085 3086 3087 3088 3089 3090 3091 3092 3092 3093 3093 3094 3094 3094 3094 3095 3095 3095 3095 3094 3094 3093 3093 3092 3091 3091 3090 3089 3088 3088 3087 3086 3085 3084 3083 3082 3081 3080 3079 3077 3076 3075 3074 3072 3071 3069 3068 3067 3066 3065 3063 3061 3059 3058 3057 3057 3056 3054 3053 3053 3052 3052
3045 3047 3048 3050 3051 3054 3056 3059 3061 3063 3064 3065 3067 3069 3070 3072 3074 3075 3076 3076 3078 3080 3081 3082 3084 3085 3086 3087 3088 3089 3090 3091 3091 3092 3092 3093 3093 3094 3094 3094 3094 3094 3094 3093 3093 3092 3092 3091 3090 3090 3089 3088 3087 3087 3086 3085 3084 3083 3082 3081 3080 3079 3078 3076 3075 3074 3073 3071 3070 3068 3066 3065 3064 3063 3062 3060 3058 3057 3056 3055 3055 3055 3054 3053 3053 3052
3045 3047 3049 3050 3052 3054 3056 3059 3061 3063 3063 3065 3066 3068 3070 3073 3074 3075 3075 3076 3077 3079 3081 3082 3083 3085 3086 3087 3088 3089 3089 3090 3091 3091 3092 3092 3093 3093 3093 3093 3093 3093 3093 3092 3092 3091 3091 3090 3089 3089 3088 3087 3086 3085 3084 3083 3083 3082 3080 3079 3078 3077 3076 3075 3074 3073 3071 3070 3069 3067 3065 3063 3062 3061 3060 3059 3057 3056 3055 3054 3054 3054 3054 3054 3054 3053
3045 3047 3049 3050 3052 3054 3056 3058 3060 3061 3062 3064 3066 3068 3070 3073 3074 3074 3075 3076 3077 3078 3080 3081 3083 3084 3086 3087 3088 3089 3089 3090 3091 3091 3092 3092 3092 3093 3093 3092 3092 3092 3092 3092 3091 3091 3090 3090 3089 3088 3088 3087 3086 3085 3084 3083 3082 3081 3080 3079 3077 3076 3075 3074 3073 3072 3070 3069 3068 3066 3064 3062 3061 3059 3058 3057 3056 3055 3055 3054 3054 3054 3054 3054 3054 3054
3046 3047 3048 3050 3052 3053 3055 3057 3058 3060 3061 3063 3065 3068 3070 3072 3073 3074 3075 3075 3077 3078 3080 3081 3083 3085 3086 3087 3087 3088 3089 3090 3090 3091 3091 3092 3092 3092 3092 3092 3092 3092 3092 3092 3091 3090 3090 3089 3089 3088 3087 3086 3085 3084 3083 3082 3081 3080 3079 3078 3077 3075 3074 3073 3072 3071 3069 3068 3067 3065 3063 3061 3060 3058 3057 3056 3055 3055 3054 3053 3053 3052 3052 3053 3054 3054
3046 3047 3048 3049 3051 3053 3054 3056 3057 3059 3060 3063 3065 3068 3070 3072 3073 3074 3075 3076 3077 3078 3080 3081 3083 3084 3085 3086 3087 3088 3089 3089 3090 3091 3091 3092 3092 3092 3092 3092 3092 3092 3092 3091 3091 3090 3089 3088 3088 3087 3086 3085 3084 3083 3082 3081 3080 3079 3078 3077 3076 3075 3074 3073 3071 3070 3068 3067 3066 3064 3062 3060 3059 3057 3056 3055 3055 3054 3053 3052 3051 3051 3051 3051 3052 3053
3046 3047 3048 3049 3051 3053 3054 3056 3057 3058 3060 3063 3065 3067 3069 3071 3073 3073 3074 3076 3077 3078 3079 3081 3083 3084 3085 3086 3087 3088 3089 3089 3090 3091 3091 3092 3092 3092 3092 3092 3092 3092 3091 3091 3090 3090 3089 3088 3088 3087 3086 3085 3084 3083 3082 3080 3079 3078 3077 3076 3075 3074 3073 3072 3071 3070 3068 3066 3065 3063 3062 3060 3058 3057 3055 3055 3054 3053 3052 3051 3050 3050 3049 3049 3050 3050
3046 3047 3048 3049 3051 3052 3054 3056 3057 3059 3061 3063 3065 3067 3069 3071 3072 3073 3074 3076 3077 3078 3079 3081 3082 3083 3084 3086 3087 3088 3089 3090 3090 3091 3092 3092 3092 3093 3093 3092 3092 3092 3092 3091 3091 3090 3090 3089 3088 3087 3086 3085 3084 3083 3081 3080 3079 3078 3077 3075 3074 3073 3072 3071 3070 3069 3068 3066 3064 3063 3061 3060 3058 3056 3055 3054 3053 3052 3051 3051 3050 3049 3049 3048 3048 3049
3045 3047 3048 3049 3051 3052 3054 3055 3057 3059 3061 3063 3065 3067 3069 3071 3072 3073 3074 3076 3077 3078 3079 3080 3082 3083 3085 3086 3087 3088 3089 3090 3091 3091 3092 3092 3093 3093 3093 3093 3093 3092 3092 3092 3091 3090 3090 3089 3088 3087 3086 3085 3084 3082 3081 3080 3079 3077 3076 3075 3074 3073 3072 3071 3070 3069 3067 3066 3064 3062 3061 3059 3057 3056 3055 3053 3052 3051 3051 3050 3050 3049 3049 3048 3048 3048
3045 3046 3047 3049 3050 3052 3053 3055 3056 3058 3061 3063 3065 3067 3069 3071 3072 3073 3074 3076 3077 3078 3079 3080 3082 3083 3085 3086 3088 3089 3090 3090 3091 3092 3092 3093 3093 3093 3093 3093 3093 3093 3092 3092 3091 3091 3090 3089 3088 3087 3086 3085 3083 3082 3081 3079 3078 3077 3076 3075 3074 3072 3071 3070 3069 3068 3067 3066 3064 3063 3061 3059 3058 3056 3055 3053 3052 3051 3050 3050 3049 3049 3049 3048 3048 3047
3045 3046 3048 3049 3050 3052 3053 3054 3056 3058 3060 3062 3065 3068 3069 3071 3073 3074 3075 3076 3078 3079 3080 3081 3082 3084 3086 3087 3088 3089 3090 3091 3092 3092 3093 3093 3093 3093 3094 3093 3093 3093 3093 3092 3091 3091 3090 3089 3088 3087 3086 3085 3084 3082 3081 3080 3078 3077 3076 3075 3073 3072 3071 3070 3068 3067 3066 3065 3064 3063 3061 3060 3059 3057 3055 3054 3052 3051 3050 3049 3049 3048 3048 3048 3047 3047
3045 3046 3048 3049 3050 3051 3053 3054 3056 3058 3061 3063 3065 3068 3069 3071 3073 3074 3076 3077 3079 3080 3082 3083 3084 3085 3087 3088 3089 3090 3091 3092 3092 3093 3093 3093 3094 3094 3094 3094 3093 3093 3093 3092 3091 3091 3090 3089 3088 3087 3086 3085 3084 3083 3081 3080 3078 3077 3076 3075 3073 3072 3071 3069 3068 3067 3066 3065 3064 3062 3061 3060 3059 3058 3057 3055 3053 3052 3051 3050 3049 3048 3048 3047 3047 3046